Time,TemperatureF,DewpointF,PressureIn,WindDirection,WindDirectionDegrees,WindSpeedMPH,WindSpeedGustMPH,Humidity,HourlyPrecipIn,Conditions,Clouds,dailyrainin,SoftwareType,DateUTC
2013-02-24 00:01:00,73.0,69.0,29.85,WSW,252,8.0,14.0,88,0.00,,,0.00,,2013-02-24 05:01:00,
2013-02-24 00:11:00,73.0,69.0,29.85,WSW,252,8.0,14.0,88,0.00,,,0.00,,2013-02-24 05:11:00,
2013-02-24 00:22:00,73.0,69.0,29.85,WSW,252,8.0,14.0,88,0.00,,,0.00,,2013-02-24 05:22:00,
2013-02-24 00:32:00,73.0,69.0,29.85,WSW,252,8.0,14.0,88,0.00,,,0.00,,2013-02-24 05:32:00,
2013-02-24 00:42:00,73.0,70.0,29.85,WSW,248,10.0,17.0,91,0.00,,,0.00,,2013-02-24 05:42:00,
2013-02-24 00:52:00,73.0,70.0,29.85,WSW,248,10.0,17.0,91,0.00,,,0.00,,2013-02-24 05:52:00,
2013-02-24 01:02:00,73.0,71.0,29.84,WSW,245,9.0,15.0,92,0.00,,,0.00,,2013-02-24 06:02:00,
2013-02-24 01:11:00,73.0,71.0,29.84,WSW,245,9.0,15.0,92,0.00,,,0.00,,2013-02-24 06:11:00,
2013-02-24 01:21:00,73.0,71.0,29.84,WSW,245,9.0,15.0,92,0.00,,,0.00,,2013-02-24 06:21:00,
2013-02-24 01:32:00,72.0,70.0,29.84,WSW,248,10.0,14.0,94,0.00,,,0.00,,2013-02-24 06:32:00,
2013-02-24 01:42:00,72.0,70.0,29.84,WSW,248,10.0,14.0,94,0.00,,,0.00,,2013-02-24 06:42:00,
2013-02-24 01:52:00,72.0,70.0,29.83,SSW,212,11.0,14.0,94,0.00,,,0.00,,2013-02-24 06:52:00,
2013-02-24 02:01:00,72.0,70.0,29.83,SW,233,10.0,14.0,94,0.00,,,0.00,,2013-02-24 07:01:00,
2013-02-24 02:12:00,72.0,70.0,29.83,SW,233,10.0,14.0,94,0.00,,,0.00,,2013-02-24 07:12:00,
2013-02-24 02:21:00,71.0,69.0,29.82,SW,215,8.0,15.0,94,0.00,,,0.00,,2013-02-24 07:21:00,
2013-02-24 02:32:00,71.0,69.0,29.82,SW,222,12.0,15.0,93,0.00,,,0.00,,2013-02-24 07:32:00,
2013-02-24 02:42:00,71.0,69.0,29.82,SW,222,12.0,15.0,93,0.00,,,0.00,,2013-02-24 07:42:00,
2013-02-24 02:51:00,71.0,69.0,29.81,SW,233,10.0,15.0,93,0.00,,,0.00,,2013-02-24 07:51:00,
2013-02-24 03:01:00,71.0,69.0,29.81,SW,219,6.0,16.0,93,0.00,,,0.00,,2013-02-24 08:01:00,
2013-02-24 03:11:00,71.0,69.0,29.81,SW,227,12.0,16.0,94,0.00,,,0.00,,2013-02-24 08:11:00,
2013-02-24 03:22:00,71.0,69.0,29.81,SW,227,12.0,16.0,94,0.00,,,0.00,,2013-02-24 08:22:00,
2013-02-24 03:32:00,70.0,68.0,29.82,SSW,213,10.0,13.0,94,0.00,,,0.00,,2013-02-24 08:32:00,
2013-02-24 03:42:00,70.0,68.0,29.82,SSW,213,10.0,13.0,94,0.00,,,0.00,,2013-02-24 08:42:00,
2013-02-24 03:53:00,70.0,68.0,29.81,SSW,200,10.0,13.0,95,0.00,,,0.00,,2013-02-24 08:53:00,
2013-02-24 04:01:00,69.0,68.0,29.81,SW,217,8.0,14.0,95,0.00,,,0.00,,2013-02-24 09:01:00,
2013-02-24 04:11:00,69.0,68.0,29.81,SW,217,8.0,14.0,95,0.00,,,0.00,,2013-02-24 09:11:00,
2013-02-24 04:21:00,69.0,68.0,29.80,SW,217,13.0,16.0,95,0.00,,,0.00,,2013-02-24 09:21:00,
2013-02-24 04:32:00,68.0,67.0,29.80,SW,215,11.0,15.0,96,0.00,,,0.00,,2013-02-24 09:32:00,
2013-02-24 04:42:00,68.0,67.0,29.80,SW,215,11.0,15.0,96,0.00,,,0.00,,2013-02-24 09:42:00,
2013-02-24 04:51:00,68.0,67.0,29.80,SW,217,12.0,15.0,97,0.00,,,0.00,,2013-02-24 09:51:00,
2013-02-24 05:01:00,68.0,67.0,29.80,South,186,11.0,17.0,97,0.00,,,0.00,,2013-02-24 10:01:00,
2013-02-24 05:11:00,68.0,67.0,29.80,SSW,200,6.0,17.0,97,0.00,,,0.00,,2013-02-24 10:11:00,
2013-02-24 05:21:00,68.0,67.0,29.80,SSW,200,6.0,17.0,97,0.00,,,0.00,,2013-02-24 10:21:00,
2013-02-24 05:32:00,68.0,67.0,29.80,SSW,203,10.0,14.0,98,0.00,,,0.00,,2013-02-24 10:32:00,
2013-02-24 05:41:00,68.0,67.0,29.80,SSW,203,10.0,14.0,98,0.00,,,0.00,,2013-02-24 10:41:00,
2013-02-24 05:51:00,68.0,67.0,29.81,SSW,213,10.0,17.0,97,0.00,,,0.00,,2013-02-24 10:51:00,
2013-02-24 06:01:00,68.0,67.0,29.82,SW,218,11.0,14.0,97,0.00,,,0.00,,2013-02-24 11:01:00,
2013-02-24 06:11:00,68.0,67.0,29.82,SW,218,11.0,14.0,97,0.00,,,0.00,,2013-02-24 11:11:00,
2013-02-24 06:22:00,68.0,67.0,29.82,SW,221,8.0,15.0,98,0.00,,,0.00,,2013-02-24 11:22:00,
2013-02-24 06:32:00,68.0,67.0,29.83,WSW,251,11.0,14.0,98,0.00,,,0.00,,2013-02-24 11:32:00,
2013-02-24 06:42:00,68.0,67.0,29.83,WSW,251,11.0,14.0,98,0.00,,,0.00,,2013-02-24 11:42:00,
2013-02-24 06:52:00,68.0,67.0,29.83,SW,227,11.0,15.0,98,0.00,,,0.00,,2013-02-24 11:52:00,
2013-02-24 07:02:00,68.0,67.0,29.84,West,266,8.0,15.0,98,0.00,,,0.00,,2013-02-24 12:02:00,
2013-02-24 07:11:00,68.0,67.0,29.84,West,266,8.0,15.0,98,0.00,,,0.00,,2013-02-24 12:11:00,
2013-02-24 07:22:00,68.0,67.0,29.84,West,266,8.0,15.0,98,0.00,,,0.00,,2013-02-24 12:22:00,
2013-02-24 07:32:00,68.0,67.0,29.85,WSW,252,12.0,15.0,98,0.00,,,0.00,,2013-02-24 12:32:00,
2013-02-24 07:46:00,68.0,67.0,29.85,WSW,252,12.0,15.0,98,0.00,,,0.00,,2013-02-24 12:46:00,
2013-02-24 08:15:00,69.0,68.0,29.86,WSW,242,8.0,14.0,97,0.00,,,0.00,,2013-02-24 13:15:00,
2013-02-24 08:26:00,69.0,68.0,29.86,SW,234,5.0,14.0,97,0.00,,,0.00,,2013-02-24 13:26:00,
2013-02-24 08:34:00,69.0,68.0,29.87,SW,236,10.0,13.0,97,0.00,,,0.00,,2013-02-24 13:34:00,
2013-02-24 08:45:00,69.0,68.0,29.87,SW,236,10.0,13.0,97,0.00,,,0.00,,2013-02-24 13:45:00,
2013-02-24 08:53:00,69.0,68.0,29.87,SW,221,5.0,13.0,97,0.00,,,0.00,,2013-02-24 13:53:00,
2013-02-24 09:05:00,69.0,68.0,29.87,WSW,238,6.0,12.0,97,0.00,,,0.00,,2013-02-24 14:05:00,
2013-02-24 09:25:00,69.0,68.0,29.87,WSW,238,6.0,12.0,97,0.00,,,0.00,,2013-02-24 14:25:00,
2013-02-24 09:34:00,70.0,69.0,29.88,WSW,256,11.0,13.0,96,0.00,,,0.00,,2013-02-24 14:34:00,
2013-02-24 09:44:00,70.0,69.0,29.88,WSW,256,11.0,13.0,96,0.00,,,0.00,,2013-02-24 14:44:00,
2013-02-24 09:55:00,70.0,69.0,29.90,WSW,249,11.0,14.0,96,0.00,,,0.00,,2013-02-24 14:55:00,
2013-02-24 10:04:00,71.0,69.0,29.89,WSW,240,6.0,11.0,95,0.00,,,0.00,,2013-02-24 15:04:00,
2013-02-24 10:13:00,71.0,69.0,29.90,SW,217,5.0,11.0,95,0.00,,,0.00,,2013-02-24 15:13:00,
2013-02-24 10:23:00,71.0,69.0,29.90,SW,217,5.0,11.0,95,0.00,,,0.00,,2013-02-24 15:23:00,
2013-02-24 10:32:00,71.0,69.0,29.90,WSW,237,8.0,12.0,94,0.00,,,0.00,,2013-02-24 15:32:00,
2013-02-24 10:42:00,71.0,69.0,29.90,WSW,237,8.0,12.0,94,0.00,,,0.00,,2013-02-24 15:42:00,
2013-02-24 10:52:00,72.0,70.0,29.89,SW,225,5.0,12.0,93,0.00,,,0.00,,2013-02-24 15:52:00,
2013-02-24 11:01:00,73.0,70.0,29.89,SW,215,10.0,13.0,90,0.00,,,0.00,,2013-02-24 16:01:00,
2013-02-24 11:12:00,74.0,70.0,29.89,WSW,242,9.0,13.0,88,0.00,,,0.00,,2013-02-24 16:12:00,
2013-02-24 11:21:00,74.0,70.0,29.89,WSW,242,9.0,13.0,88,0.00,,,0.00,,2013-02-24 16:21:00,
2013-02-24 11:32:00,74.0,70.0,29.90,WSW,249,11.0,13.0,88,0.00,,,0.00,,2013-02-24 16:32:00,
2013-02-24 11:42:00,74.0,70.0,29.90,WSW,249,11.0,13.0,88,0.00,,,0.00,,2013-02-24 16:42:00,
2013-02-24 11:52:00,74.0,70.0,29.90,WSW,249,11.0,13.0,88,0.00,,,0.00,,2013-02-24 16:52:00,
2013-02-24 12:01:00,75.0,70.0,29.89,SW,217,9.0,13.0,85,0.00,,,0.00,,2013-02-24 17:01:00,
2013-02-24 12:11:00,75.0,70.0,29.89,SW,217,9.0,13.0,85,0.00,,,0.00,,2013-02-24 17:11:00,
2013-02-24 12:22:00,75.0,71.0,29.88,WSW,243,8.0,13.0,86,0.00,,,0.00,,2013-02-24 17:22:00,
2013-02-24 12:32:00,74.0,70.0,29.88,WSW,257,8.0,12.0,86,0.00,,,0.00,,2013-02-24 17:32:00,
2013-02-24 12:42:00,74.0,70.0,29.88,WSW,257,8.0,12.0,86,0.00,,,0.00,,2013-02-24 17:42:00,
2013-02-24 12:52:00,75.0,71.0,29.87,West,260,8.0,12.0,87,0.00,,,0.00,,2013-02-24 17:52:00,
2013-02-24 13:02:00,75.0,71.0,29.86,West,268,4.0,9.0,88,0.00,,,0.00,,2013-02-24 18:02:00,
2013-02-24 13:11:00,75.0,71.0,29.86,West,268,4.0,9.0,88,0.00,,,0.00,,2013-02-24 18:11:00,
2013-02-24 13:22:00,75.0,71.0,29.86,West,268,5.0,9.0,88,0.00,,,0.00,,2013-02-24 18:22:00,
2013-02-24 13:32:00,75.0,71.0,29.86,West,271,5.0,7.0,87,0.00,,,0.00,,2013-02-24 18:32:00,
2013-02-24 13:42:00,75.0,71.0,29.86,West,271,5.0,7.0,87,0.00,,,0.00,,2013-02-24 18:42:00,
2013-02-24 13:52:00,75.0,72.0,29.86,WNW,294,9.0,10.0,89,0.00,,,0.00,,2013-02-24 18:52:00,
2013-02-24 14:01:00,74.0,71.0,29.85,NNW,334,14.0,16.0,90,0.00,,,0.00,,2013-02-24 19:01:00,
2013-02-24 14:11:00,74.0,71.0,29.85,NNW,334,14.0,16.0,90,0.00,,,0.00,,2013-02-24 19:11:00,
2013-02-24 14:22:00,73.0,71.0,29.86,NW,322,10.0,16.0,92,0.00,,,0.00,,2013-02-24 19:22:00,
2013-02-24 14:32:00,72.0,70.0,29.85,NW,315,12.0,16.0,94,0.00,,,0.00,,2013-02-24 19:32:00,
2013-02-24 14:42:00,72.0,70.0,29.85,NW,315,12.0,16.0,94,0.00,,,0.00,,2013-02-24 19:42:00,
2013-02-24 14:52:00,72.0,70.0,29.85,NW,314,13.0,17.0,95,0.00,,,0.00,,2013-02-24 19:52:00,
2013-02-24 15:02:00,71.0,69.0,29.85,WNW,298,10.0,10.0,95,0.00,,,0.00,,2013-02-24 20:02:00,
2013-02-24 15:11:00,71.0,69.0,29.85,WNW,298,10.0,10.0,95,0.00,,,0.00,,2013-02-24 20:11:00,
2013-02-24 15:21:00,71.0,69.0,29.85,NW,325,11.0,14.0,95,0.00,,,0.00,,2013-02-24 20:21:00,
2013-02-24 15:32:00,70.0,69.0,29.85,North,360,15.0,17.0,96,0.00,,,0.00,,2013-02-24 20:32:00,
2013-02-24 15:42:00,70.0,69.0,29.85,North,360,15.0,17.0,96,0.00,,,0.00,,2013-02-24 20:42:00,
2013-02-24 15:52:00,70.0,69.0,29.84,NNE,15,12.0,17.0,96,0.00,,,0.00,,2013-02-24 20:52:00,
2013-02-24 16:02:00,70.0,69.0,29.85,North,355,13.0,15.0,96,0.00,,,0.00,,2013-02-24 21:02:00,
2013-02-24 16:11:00,70.0,69.0,29.85,North,355,13.0,15.0,96,0.00,,,0.00,,2013-02-24 21:11:00,
2013-02-24 16:21:00,70.0,69.0,29.85,North,11,7.0,15.0,96,0.00,,,0.00,,2013-02-24 21:21:00,
2013-02-24 16:32:00,70.0,69.0,29.85,North,11,7.0,15.0,96,0.00,,,0.00,,2013-02-24 21:32:00,
2013-02-24 16:42:00,70.0,69.0,29.85,North,11,7.0,15.0,96,0.00,,,0.00,,2013-02-24 21:42:00,
2013-02-24 16:52:00,70.0,69.0,29.85,North,11,7.0,15.0,96,0.00,,,0.00,,2013-02-24 21:52:00,
2013-02-24 17:01:00,70.0,69.0,29.85,North,360,8.0,14.0,96,0.00,,,0.00,,2013-02-24 22:01:00,
2013-02-24 17:11:00,70.0,69.0,29.85,North,360,8.0,14.0,96,0.00,,,0.00,,2013-02-24 22:11:00,
2013-02-24 17:22:00,69.0,68.0,29.84,North,5,10.0,14.0,95,0.00,,,0.00,,2013-02-24 22:22:00,
2013-02-24 17:32:00,70.0,68.0,29.85,North,5,10.0,14.0,94,0.00,,,0.00,,2013-02-24 22:32:00,
2013-02-24 17:42:00,70.0,68.0,29.85,North,5,10.0,14.0,94,0.00,,,0.00,,2013-02-24 22:42:00,
2013-02-24 17:52:00,70.0,68.0,29.85,North,5,10.0,14.0,94,0.00,,,0.00,,2013-02-24 22:52:00,
2013-02-24 18:02:00,70.0,68.0,29.83,NNE,17,10.0,12.0,94,0.00,,,0.00,,2013-02-24 23:02:00,
2013-02-24 18:11:00,70.0,68.0,29.83,NNE,17,10.0,12.0,94,0.00,,,0.00,,2013-02-24 23:11:00,
2013-02-24 18:21:00,70.0,68.0,29.85,NNE,14,10.0,12.0,93,0.00,,,0.00,,2013-02-24 23:21:00,
2013-02-24 18:32:00,70.0,68.0,29.85,North,360,3.0,10.0,93,0.00,,,0.00,,2013-02-24 23:32:00,
2013-02-24 18:42:00,70.0,68.0,29.85,North,360,3.0,10.0,93,0.00,,,0.00,,2013-02-24 23:42:00,
2013-02-24 18:52:00,70.0,68.0,29.85,North,10,5.0,10.0,93,0.00,,,0.00,,2013-02-24 23:52:00,
2013-02-24 19:01:00,69.0,67.0,29.84,North,10,5.0,9.0,94,0.00,,,0.00,,2013-02-25 00:01:00,
2013-02-24 19:11:00,69.0,67.0,29.84,North,10,5.0,9.0,94,0.00,,,0.00,,2013-02-25 00:11:00,
2013-02-24 19:21:00,69.0,67.0,29.85,North,10,3.0,9.0,94,0.00,,,0.00,,2013-02-25 00:21:00,
2013-02-24 19:32:00,69.0,67.0,29.85,North,10,3.0,9.0,94,0.00,,,0.00,,2013-02-25 00:32:00,
2013-02-24 19:42:00,69.0,67.0,29.85,North,10,3.0,9.0,94,0.00,,,0.00,,2013-02-25 00:42:00,
2013-02-24 19:52:00,69.0,68.0,29.86,North,10,2.0,6.0,95,0.00,,,0.00,,2013-02-25 00:52:00,
2013-02-24 20:01:00,69.0,67.0,29.86,North,10,0.0,3.0,94,0.00,,,0.00,,2013-02-25 01:01:00,
2013-02-24 20:11:00,69.0,67.0,29.86,North,10,0.0,3.0,94,0.00,,,0.00,,2013-02-25 01:11:00,
2013-02-24 20:21:00,69.0,67.0,29.86,North,10,0.0,3.0,94,0.00,,,0.00,,2013-02-25 01:21:00,
2013-02-24 20:32:00,69.0,68.0,29.88,North,10,0.0,3.0,95,0.00,,,0.00,,2013-02-25 01:32:00,
2013-02-24 20:42:00,69.0,68.0,29.88,North,10,0.0,3.0,95,0.00,,,0.00,,2013-02-25 01:42:00,
2013-02-24 20:52:00,69.0,68.0,29.88,North,10,2.0,3.0,96,0.00,,,0.00,,2013-02-25 01:52:00,
2013-02-24 21:01:00,69.0,68.0,29.88,North,10,0.0,0.0,95,0.00,,,0.00,,2013-02-25 02:01:00,
2013-02-24 21:11:00,69.0,68.0,29.88,North,10,0.0,0.0,95,0.00,,,0.00,,2013-02-25 02:11:00,
2013-02-24 21:21:00,69.0,68.0,29.88,North,10,0.0,0.0,95,0.00,,,0.00,,2013-02-25 02:21:00,
2013-02-24 21:32:00,69.0,68.0,29.88,North,10,0.0,0.0,95,0.00,,,0.00,,2013-02-25 02:32:00,
2013-02-24 21:42:00,69.0,68.0,29.88,North,10,0.0,0.0,95,0.00,,,0.00,,2013-02-25 02:42:00,
2013-02-24 21:52:00,69.0,68.0,29.88,North,10,0.0,0.0,95,0.00,,,0.00,,2013-02-25 02:52:00,
2013-02-24 22:02:00,69.0,68.0,29.89,North,10,0.0,0.0,96,0.00,,,0.00,,2013-02-25 03:02:00,
2013-02-24 22:11:00,69.0,68.0,29.89,North,10,0.0,0.0,96,0.00,,,0.00,,2013-02-25 03:11:00,
2013-02-24 22:21:00,69.0,68.0,29.88,North,10,0.0,0.0,96,0.00,,,0.00,,2013-02-25 03:21:00,
2013-02-24 22:32:00,69.0,68.0,29.88,North,10,0.0,0.0,96,0.00,,,0.00,,2013-02-25 03:32:00,
2013-02-24 22:42:00,69.0,68.0,29.88,North,10,0.0,0.0,96,0.00,,,0.00,,2013-02-25 03:42:00,
2013-02-24 22:51:00,69.0,68.0,29.88,North,10,0.0,0.0,96,0.00,,,0.00,,2013-02-25 03:51:00,
2013-02-24 23:02:00,69.0,68.0,29.87,North,10,0.0,0.0,96,0.00,,,0.00,,2013-02-25 04:02:00,
2013-02-24 23:11:00,69.0,68.0,29.87,North,10,0.0,0.0,96,0.00,,,0.00,,2013-02-25 04:11:00,
2013-02-24 23:21:00,69.0,68.0,29.87,North,10,0.0,0.0,96,0.00,,,0.00,,2013-02-25 04:21:00,
2013-02-24 23:32:00,69.0,68.0,29.85,North,10,0.0,0.0,96,0.00,,,0.00,,2013-02-25 04:32:00,
2013-02-24 23:42:00,69.0,68.0,29.85,North,10,0.0,0.0,96,0.00,,,0.00,,2013-02-25 04:42:00,
2013-02-24 23:52:00,69.0,68.0,29.85,North,10,0.0,0.0,96,0.00,,,0.00,,2013-02-25 04:52:00,